Showing default

KSM1-C, 46906

Orbit data source: Space-Track

KSM1-C, 46906 is a payload satellite owned by Kleos Space (LU) in LEO that was launched on Sat, 07 Nov 2020 UTC via a PSLV-DL launch vehicle from the Sirharikota (SRI). Payload-class satellites include a variety of spacecraft equipped with specific instruments for various scientific and technological missions. These include communications satellites like Starlink; space stations such as the ISS; scientific satellites like the Hubble; Earth observation satellites from companies like Planet Labs, Umbra, and HawkEye 360; GPS; miniature CubeSats for education and research; and military/defense satellites.

Loading next visibility...
Identifier
46906, 2020-081B
Orbit
LEO
Country
Flag of LULU / LUXE
Related business
Manufacturer
GOMSpace
Mission
Operational Commercial Sigint
Bus & Motor
CUBESAT 6U, Unknown motor
Mass
~10 kg wet, ~10 kg dry
Launch date (UTC)
2020-11-07 (6 years ago)
Launch vehicle
PSLV-DL
Launch site
Sirharikota (SRI)
Object type
Payload
Rocket body
Debris
Shape & HBR
Box, 1.0 m
Radar Cross Section
0.080 m², Medium (>0.1 m² and < 1m²)

Expand to show TLE details & history
Last TLE update: 22 hours ago

TLE from 22 hours ago
0 KSM1-C
1 46906U 20081B   26172.54141200  .00008408  00000-0  31506-3 0  9999
2 46906  36.8967  32.0597 0003495 273.7628  86.2722 15.26803004309837
Epoch: 2026-06-21T12:59Z
TLE epoch observation values (Epoch: 2026-06-21T12:59:37.996Z)
Latitude
-0.00001°
Longitude
-72.58883°
Altitude
484.328 km
Speed
7.625 km/s
True Right ascension
02h 08m 14s
True Declination
0° 00' 00"
Sunlit
Object was in daylight at epoch
Visualization orbit readout
Latitude
Unknown
Longitude
Unknown
Altitude
Unknown
Speed
Unknown
Apparent Right ascension
Unknown
Apparent Declination
Unknown
Sunlit
N/A
Visualization observer readout
Local Sidereal Time
21:38:30
Azimuth
Unknown
Elevation
Unknown
Doppler factor
Unknown
Orbital elements
Apogee altitude
490.729 km
Perigee altitude
485.929 km
Semi-major axis
6,866.466 km
Eccentricity
0.00035
Inclination
36.8967°
RAAN
32.0597°
Arg. of periapsis
273.7628°
True anomaly
86.31217°
Mean anomaly
86.2722°
Eccentric anomaly
86.29218°
Mean motion
3.81455 °/min
Orbital period
94.38 mins
BSTAR
0.00031506
Loading maneuver chart data...
Computing Atmospheric mass density...
Loading historical data...
Loading historical data...
Loading historical data...
Loading historical data...
Loading historical data...
Loading historical data...
Loading historical data...

Documentation

Showing up to 5 results
|